sat.trackr.live / text

‹ back to catalog

STARLINK-37167

NORAD 68732 · 2026-082E

PAYLOAD ACTIVE UNKNOWN

§ Identity

Operator
Country
US
Launch date
2026-04-15
Launch site
AFWTR
Launch vehicle
Mass (kg)
RCS (m²)

Purposes: comms

External: N2YO · Heavens-Above · Gunter

§ Orbital elements

Epoch: 2026-05-25T04:00:03.998880Z

Period
92.95 min
Inclination
97.2854°
Eccentricity
0.0001444
Mean motion
15.49181200 rev/d
Perigee alt
418.1 km
Apogee alt
420.1 km
Semi-major
6,797.3 km
B*
2.8415e-4
RAAN
8.7245°
Arg perigee
109.4896°
Mean anomaly
213.8722°
Rev number
600

§ Raw data

STARLINK-371671 68732U 26082E   26145.16671295  .00015390  00000+0  28415-3 0  99992 68732  97.2854   8.7245 0001444 109.4896 213.8722 15.49181200  6001

JSON: /api/v1/satellites/68732 · /tle

For live sub-satellite position, see the globe view (requires WebGL).

§ Visibility from observer

Set your observer location to see the next 7 days of passes ≥ 10°. The values pass through the URL so the page stays shareable.

No JS? Fill the form by hand. The geolocation button needs JavaScript.